Location: Freistadt
(48.5112°N, 14.5013°E)
Time: 10:29:20
(UTC+02:00)

PCSat - Pass Details

Date: 28 March 2023
Orbit: 783 x 794 km, 67.1° (Epoch: 29 May)

Event Time Altitude Azimuth Distance (km) Brightness Sun altitude
Rises 02:00:09 0° 324° (NW) 3,301 13.2 -37.4°
Reaches altitude 10° 02:02:34 10° 322° (NW) 2,369 12.3 -37.3°
Enters shadow 02:03:14 14° 321° (NW) 2,119 12.1 -37.3°
